Location: Newark
(53.3469°N, 7.1606°E)
Time: 15:54:53
(UTC+00:00)

N. Korean satellite - Pass Details

Date: 16 November 2019
Orbit: 455 x 507 km, 97.2° (Epoch: 13 December)

Event Time Altitude Azimuth Distance (km) Brightness Sun altitude
Rises 05:47:44 0° 12° (NNE) 2,628 10.2 -10.3°
Reaches altitude 10° 05:49:50 10° 10° (N) 1,737 9.3 -10.0°
Maximum altitude 05:53:35 73° 286° (WNW) 536 6.6 -9.5°
Drops below altitude 10° 05:57:15 10° 202° (SSW) 1,710 9.3 -9.0°
Sets 05:59:19 0° 200° (SSW) 2,583 10.3 -8.7°
